This demonstration page uses our WeatherBlox Daily Observations layout. Learn more.

Left ArrowRight Arrow

Hourly Observations for March 1, 2020

Temp ( °F °C ) Dew Point ( °F °C ) Humidity (%) Winds ( mph kmh ) Pressure ( in mb ) Visibility ( mi km ) Precip ( " mm )
12:54 am 00:54 Clear 49 9.4 30 -1.1 48 48 SSW 10 17 29.68 1005 10 16.0934 0 0
1:54 am 01:54 Clear 46 7.8 30 -1.1 54 54 S 7 11 29.68 1005 10 16.0934 0 0
2:54 am 02:54 Clear 42 5.6 29 -1.7 60 60 S 6 9 29.66 1005 10 16.0934 0 0
3:54 am 03:54 Clear 44 6.7 30 -1.1 58 58 SW 3 6 29.67 1005 10 16.0934 0 0
4:54 am 04:54 Clear 39 3.9 28 -2.2 65 65 SSE 5 7 29.67 1005 10 16.0934 0 0
5:54 am 05:54 Clear 36 2.2 28 -2.2 73 73 S 3 6 29.68 1005 10 16.0934 0 0
6:54 am 06:54 Clear 30 -1.1 25 -3.9 82 82 NNW 6 9 29.7 1006 10 16.0934 0 0
7:54 am 07:54 Sunny 41 5 29 -1.7 62 62 W 7 11 29.71 1006 10 16.0934 0 0
8:54 am 08:54 Sunny 46 7.8 29 -1.7 51 51 NW 10 17 29.72 1007 10 16.0934 0 0
9:54 am 09:54 Sunny 50 10 30 -1.1 46 46 N 15 24 29.73 1007 10 16.0934 0 0
10:54 am 10:54 Sunny 51 10.6 31 -0.6 46 46 N 17 28 29.75 1008 10 16.0934 0 0
11:54 am 11:54 Sunny 54 12.2 33 0.6 45 45 NNW 14 22 29.76 1008 10 16.0934 0 0
12:54 pm 12:54 Sunny 59 15 32 0 36 36 N 22 35 29.75 1008 10 16.0934 0 0
1:54 pm 13:54 Sunny 59 15 32 0 36 36 N 21 33 29.76 1008 10 16.0934 0 0
2:54 pm 14:54 Sunny 58 14.4 28 -2.2 32 32 N 22 35 29.78 1008 10 16.0934 0 0
3:54 pm 15:54 Sunny 58 14.4 28 -2.2 32 32 NNE 21 33 29.8 1009 10 16.0934 0 0
4:54 pm 16:54 Sunny 56 13.3 27 -2.8 33 33 N 23 37 29.82 1010 10 16.0934 0 0
5:54 pm 17:54 Sunny 52 11.1 24 -4.4 34 34 NNE 18 30 29.86 1011 10 16.0934 0 0
6:54 pm 18:54 Clear 46 7.8 22 -5.6 38 38 NNE 13 20 29.9 1013 10 16.0934 0 0
7:54 pm 19:54 Clear 45 7.2 27 -2.8 49 49 N 21 33 29.93 1014 10 16.0934 0 0
8:54 pm 20:54 Clear 40 4.4 28 -2.2 63 63 N 13 20 29.96 1014 10 16.0934 0 0
9:54 pm 21:54 Clear 34 1.1 26 -3.3 73 73 N 9 15 29.97 1015 10 16.0934 0 0
10:54 pm 22:54 Clear 31 -0.6 24 -4.4 76 76 N 6 9 29.98 1015 10 16.0934 0 0
11:54 pm 23:54 Clear 35 1.7 27 -2.8 72 72 N 10 17 29.98 1015 10 16.0934 0 0

Powered by AerisWeather